| time (UTC) | temp F | wind direction | speed MPH | gust MPH | rain 1hr in | rain 24hr in | rain mn in | humidity % | barometer mb |
| 20260510203704 | 74 | 220 | 8.0 | 8.0 | 0.00 | 0.00 | 0.00 | 43 | 1017.4 |
| 20260510203205 | 74 | 220 | 8.0 | 8.0 | 0.00 | 0.00 | 0.00 | 44 | 1017.5 |
| 20260510202705 | 74 | 220 | 8.0 | 8.0 | 0.00 | 0.00 | 0.00 | 47 | 1017.5 |
| 20260510202205 | 74 | 220 | 8.0 | 8.0 | 0.00 | 0.00 | 0.00 | 44 | 1017.5 |
| 20260510201705 | 73 | 220 | 8.0 | 8.0 | 0.00 | 0.00 | 0.00 | 42 | 1017.4 |
| 20260510201205 | 74 | 220 | 8.0 | 8.0 | 0.00 | 0.00 | 0.00 | 44 | 1017.5 |
| 20260510200205 | 73 | 222 | 10.0 | 20.0 | 0.00 | 0.00 | 0.00 | 42 | 1017.7 |
| 20260510195204 | 74 | 250 | 13.0 | 20.0 | 0.00 | 0.00 | 0.00 | 45 | 1017.7 |
| 20260510194705 | 74 | 250 | 13.0 | 20.0 | 0.00 | 0.00 | 0.00 | 43 | 1017.7 |
| 20260510194205 | 74 | 250 | 13.0 | 20.0 | 0.00 | 0.00 | 0.00 | 42 | 1017.7 |
| 20260510193704 | 74 | 250 | 13.0 | 20.0 | 0.00 | 0.00 | 0.00 | 42 | 1017.8 |
| 20260510193205 | 74 | 250 | 13.0 | 20.0 | 0.00 | 0.00 | 0.00 | 44 | 1017.8 |
| 20260510192705 | 73 | 250 | 13.0 | 20.0 | 0.00 | 0.00 | 0.00 | 43 | 1017.8 |
| 20260510192205 | 73 | 250 | 13.0 | 20.0 | 0.00 | 0.00 | 0.00 | 42 | 1017.8 |
| 20260510191705 | 73 | 250 | 13.0 | 20.0 | 0.00 | 0.00 | 0.00 | 42 | 1017.8 |
| 20260510185705 | 73 | 250 | 7.0 | 7.0 | 0.00 | 0.00 | 0.00 | 42 | 1017.8 |
| 20260510185206 | 73 | 250 | 7.0 | 7.0 | 0.00 | 0.00 | 0.00 | 43 | 1017.9 |
| 20260510184705 | 72 | 250 | 7.0 | 7.0 | 0.00 | 0.00 | 0.00 | 47 | 1017.9 |
| 20260510184205 | 71 | 250 | 7.0 | 7.0 | 0.00 | 0.00 | 0.00 | 45 | 1018.1 |
| 20260510183705 | 71 | 250 | 7.0 | 7.0 | 0.00 | 0.00 | 0.00 | 49 | 1018.1 |
| 20260510183206 | 70 | 250 | 7.0 | 7.0 | 0.00 | 0.00 | 0.00 | 46 | 1018.1 |
| 20260510182705 | 70 | 250 | 7.0 | 7.0 | 0.00 | 0.00 | 0.00 | 49 | 1018.3 |
| 20260510181705 | 71 | 250 | 7.0 | 7.0 | 0.00 | 0.00 | 0.00 | 51 | 1018.5 |
| 20260510180705 | 71 | 250 | 7.0 | 7.0 | 0.00 | 0.00 | 0.00 | 47 | 1018.3 |
| 20260510180205 | 71 | 252 | 9.0 | 12.0 | 0.00 | 0.00 | 0.00 | 50 | 1018.4 |
| 20260510175705 | 71 | 290 | 12.0 | 12.0 | 0.00 | 0.00 | 0.00 | 45 | 1018.3 |
| 20260510174705 | 71 | 290 | 12.0 | 12.0 | 0.00 | 0.00 | 0.00 | 46 | 1018.3 |
| 20260510173704 | 72 | 290 | 12.0 | 12.0 | 0.00 | 0.00 | 0.00 | 45 | 1018.2 |
| 20260510173205 | 71 | 290 | 12.0 | 12.0 | 0.00 | 0.00 | 0.00 | 47 | 1018.5 |
| 20260510172705 | 70 | 290 | 12.0 | 12.0 | 0.00 | 0.00 | 0.00 | 46 | 1018.5 |
| 20260510172205 | 70 | 290 | 12.0 | 12.0 | 0.00 | 0.00 | 0.00 | 45 | 1018.4 |
| 20260510171705 | 70 | 290 | 12.0 | 12.0 | 0.00 | 0.00 | 0.00 | 45 | 1018.5 |
| 20260510171205 | 70 | 290 | 12.0 | 12.0 | 0.00 | 0.00 | 0.00 | 45 | 1018.6 |
| 20260510170705 | 70 | 290 | 12.0 | 12.0 | 0.00 | 0.00 | 0.00 | 43 | 1018.5 |
| 20260510170205 | 70 | 288 | 10.0 | 12.0 | 0.00 | 0.00 | 0.00 | 46 | 1018.6 |
| 20260510165705 | 69 | 230 | 9.0 | 9.0 | 0.00 | 0.00 | 0.00 | 46 | 1018.8 |
| 20260510165205 | 69 | 230 | 9.0 | 9.0 | 0.00 | 0.00 | 0.00 | 43 | 1018.7 |
| 20260510164705 | 69 | 230 | 9.0 | 9.0 | 0.00 | 0.00 | 0.00 | 45 | 1018.8 |
| 20260510164205 | 69 | 230 | 9.0 | 9.0 | 0.00 | 0.00 | 0.00 | 46 | 1018.7 |
| 20260510163204 | 68 | 230 | 9.0 | 9.0 | 0.00 | 0.00 | 0.00 | 45 | 1018.7 |
| 20260510162205 | 68 | 230 | 9.0 | 9.0 | 0.00 | 0.00 | 0.00 | 45 | 1018.6 |
| 20260510161705 | 69 | 230 | 9.0 | 9.0 | 0.00 | 0.00 | 0.00 | 42 | 1018.7 |
| 20260510161204 | 69 | 230 | 9.0 | 9.0 | 0.00 | 0.00 | 0.00 | 44 | 1018.7 |
| 20260510160705 | 69 | 230 | 9.0 | 9.0 | 0.00 | 0.00 | 0.00 | 44 | 1018.8 |
| 20260510160204 | 69 | 231 | 10.0 | 12.0 | 0.00 | 0.00 | 0.00 | 44 | 1018.8 |
| 20260510155705 | 68 | 240 | 12.0 | 12.0 | 0.00 | 0.00 | 0.00 | 42 | 1018.6 |
| 20260510155205 | 68 | 240 | 12.0 | 12.0 | 0.00 | 0.00 | 0.00 | 43 | 1018.6 |
| 20260510154705 | 67 | 240 | 12.0 | 12.0 | 0.00 | 0.00 | 0.00 | 46 | 1018.6 |
| 20260510154205 | 67 | 240 | 12.0 | 12.0 | 0.00 | 0.00 | 0.00 | 45 | 1018.5 |
| 20260510153705 | 68 | 240 | 12.0 | 12.0 | 0.00 | 0.00 | 0.00 | 45 | 1018.5 |
| 20260510153205 | 67 | 240 | 12.0 | 12.0 | 0.00 | 0.00 | 0.00 | 48 | 1018.5 |
| 20260510152704 | 67 | 240 | 12.0 | 12.0 | 0.00 | 0.00 | 0.00 | 44 | 1018.3 |
| 20260510151705 | 67 | 240 | 12.0 | 12.0 | 0.00 | 0.00 | 0.00 | 47 | 1018.4 |
| 20260510151205 | 67 | 240 | 12.0 | 12.0 | 0.00 | 0.00 | 0.00 | 48 | 1018.4 |
| 20260510150705 | 67 | 240 | 12.0 | 12.0 | 0.00 | 0.00 | 0.00 | 51 | 1018.4 |
| 20260510145705 | 67 | 240 | 10.0 | 10.0 | 0.00 | 0.00 | 0.00 | 51 | 1018.4 |
| 20260510144705 | 66 | 240 | 10.0 | 10.0 | 0.00 | 0.00 | 0.00 | 50 | 1018.3 |
| 20260510144205 | 66 | 240 | 10.0 | 10.0 | 0.00 | 0.00 | 0.00 | 51 | 1018.4 |
| 20260510143705 | 66 | 240 | 10.0 | 10.0 | 0.00 | 0.00 | 0.00 | 52 | 1018.4 |
| 20260510142707 | 65 | 240 | 10.0 | 10.0 | 0.00 | 0.00 | 0.00 | 54 | 1018.4 |
| 20260510142207 | 65 | 240 | 10.0 | 10.0 | 0.00 | 0.00 | 0.00 | 52 | 1018.4 |
| 20260510141706 | 65 | 240 | 10.0 | 10.0 | 0.00 | 0.00 | 0.00 | 54 | 1018.4 |
| 20260510141208 | 64 | 240 | 10.0 | 10.0 | 0.00 | 0.00 | 0.00 | 52 | 1018.2 |
| 20260510140705 | 64 | 240 | 10.0 | 10.0 | 0.00 | 0.00 | 0.00 | 55 | 1018.3 |
| 20260510140205 | 63 | 241 | 10.0 | 10.0 | 0.00 | 0.00 | 0.00 | 56 | 1018.4 |
| 20260510135704 | 62 | 260 | 10.0 | 10.0 | 0.00 | 0.00 | 0.00 | 55 | 1018.1 |
| 20260510135205 | 61 | 260 | 10.0 | 10.0 | 0.00 | 0.00 | 0.00 | 59 | 1018.3 |
| 20260510134705 | 60 | 260 | 10.0 | 10.0 | 0.00 | 0.00 | 0.00 | 63 | 1018.3 |
| 20260510134205 | 59 | 260 | 10.0 | 10.0 | 0.00 | 0.00 | 0.00 | 65 | 1018.3 |
| 20260510133705 | 57 | 260 | 10.0 | 10.0 | 0.00 | 0.00 | 0.00 | 71 | 1018.2 |
| 20260510133205 | 54 | 260 | 10.0 | 10.0 | 0.00 | 0.00 | 0.00 | 77 | 1018.1 |
| 20260510132705 | 53 | 260 | 10.0 | 10.0 | 0.00 | 0.00 | 0.00 | 84 | 1018.2 |
| 20260510132209 | 51 | 260 | 10.0 | 10.0 | 0.00 | 0.00 | 0.00 | 87 | 1018.3 |
| 20260510131705 | 50 | 260 | 10.0 | 10.0 | 0.00 | 0.00 | 0.00 | 96 | 1018.3 |
| 20260510131204 | 49 | 260 | 10.0 | 10.0 | 0.00 | 0.00 | 0.00 | 96 | 1018.3 |
| 20260510130704 | 49 | 260 | 10.0 | 10.0 | 0.00 | 0.00 | 0.00 | 97 | 1018.2 |
| 20260510130204 | 49 | 260 | 8.0 | 10.0 | 0.00 | 0.00 | 0.00 | 97 | 1018.1 |
| 20260510125705 | 48 | 260 | 6.0 | 6.0 | 0.00 | 0.00 | 0.00 | 97 | 1018.0 |
| 20260510125205 | 48 | 260 | 6.0 | 6.0 | 0.00 | 0.00 | 0.00 | 96 | 1018.1 |
| 20260510124705 | 47 | 260 | 6.0 | 6.0 | 0.00 | 0.00 | 0.00 | 97 | 1017.9 |
| 20260510124205 | 46 | 260 | 6.0 | 6.0 | 0.00 | 0.00 | 0.00 | 96 | 1017.9 |
| 20260510123705 | 46 | 260 | 6.0 | 6.0 | 0.00 | 0.00 | 0.00 | 96 | 1018.0 |
| 20260510123204 | 45 | 260 | 6.0 | 6.0 | 0.00 | 0.00 | 0.00 | 96 | 1018.0 |
| 20260510122705 | 44 | 260 | 6.0 | 6.0 | 0.00 | 0.00 | 0.00 | 96 | 1018.1 |
| 20260510121205 | 43 | 260 | 6.0 | 6.0 | 0.00 | 0.00 | 0.00 | 96 | 1017.8 |
| 20260510120705 | 42 | 260 | 6.0 | 6.0 | 0.00 | 0.00 | 0.00 | 96 | 1017.8 |
| 20260510120205 | 42 | 260 | 6.0 | 6.0 | 0.00 | 0.00 | 0.00 | 96 | 1017.7 |
| 20260510115705 | 42 | 270 | 6.0 | 6.0 | 0.00 | 0.00 | 0.00 | 96 | 1017.6 |
| 20260510114205 | 42 | 270 | 6.0 | 6.0 | 0.00 | 0.00 | 0.00 | 96 | 1017.6 |
| 20260510113705 | 41 | 270 | 6.0 | 6.0 | 0.00 | 0.00 | 0.00 | 95 | 1017.7 |
| 20260510113205 | 41 | 270 | 6.0 | 6.0 | 0.00 | 0.00 | 0.00 | 95 | 1017.6 |
| 20260510112705 | 41 | 270 | 6.0 | 6.0 | 0.00 | 0.00 | 0.00 | 95 | 1017.4 |
| 20260510112205 | 41 | 270 | 6.0 | 6.0 | 0.00 | 0.00 | 0.00 | 96 | 1017.4 |
| 20260510111704 | 41 | 270 | 6.0 | 6.0 | 0.00 | 0.00 | 0.00 | 96 | 1017.4 |
| 20260510111205 | 40 | 270 | 6.0 | 6.0 | 0.00 | 0.00 | 0.00 | 95 | 1017.2 |
| 20260510110705 | 40 | 270 | 6.0 | 6.0 | 0.00 | 0.00 | 0.00 | 95 | 1017.2 |
| 20260510105205 | 40 | 230 | 3.0 | 3.0 | 0.00 | 0.00 | 0.00 | 94 | 1017.0 |
| 20260510104704 | 40 | 230 | 3.0 | 3.0 | 0.00 | 0.00 | 0.00 | 94 | 1017.0 |
| 20260510104205 | 40 | 230 | 3.0 | 3.0 | 0.00 | 0.00 | 0.00 | 94 | 1016.9 |
| 20260510103705 | 40 | 230 | 3.0 | 3.0 | 0.00 | 0.00 | 0.00 | 94 | 1016.8 |
| 20260510102705 | 41 | 230 | 3.0 | 3.0 | 0.00 | 0.00 | 0.00 | 94 | 1016.6 |
| 20260510102205 | 41 | 230 | 3.0 | 3.0 | 0.00 | 0.00 | 0.00 | 94 | 1016.6 |
| 20260510101705 | 41 | 230 | 3.0 | 3.0 | 0.00 | 0.00 | 0.00 | 94 | 1016.5 |
| 20260510101205 | 41 | 230 | 3.0 | 3.0 | 0.00 | 0.00 | 0.00 | 95 | 1016.4 |
| 20260510100705 | 41 | 230 | 3.0 | 3.0 | 0.00 | 0.00 | 0.00 | 95 | 1016.4 |
| 20260510100205 | 41 | 232 | 4.0 | 5.0 | 0.00 | 0.00 | 0.00 | 95 | 1016.4 |
| 20260510095705 | 41 | 270 | 5.0 | 5.0 | 0.00 | 0.00 | 0.00 | 95 | 1016.3 |
| 20260510095205 | 41 | 270 | 5.0 | 5.0 | 0.00 | 0.00 | 0.00 | 94 | 1016.3 |
| 20260510094705 | 41 | 270 | 5.0 | 5.0 | 0.00 | 0.00 | 0.00 | 94 | 1016.2 |
| 20260510094205 | 41 | 270 | 5.0 | 5.0 | 0.00 | 0.00 | 0.00 | 95 | 1016.1 |
| 20260510093205 | 41 | 270 | 5.0 | 5.0 | 0.00 | 0.00 | 0.00 | 94 | 1016.1 |
| 20260510092705 | 41 | 270 | 5.0 | 5.0 | 0.00 | 0.00 | 0.00 | 94 | 1016.1 |
| 20260510092205 | 41 | 270 | 5.0 | 5.0 | 0.00 | 0.00 | 0.00 | 94 | 1016.2 |
| 20260510091705 | 42 | 270 | 5.0 | 5.0 | 0.00 | 0.00 | 0.00 | 94 | 1016.2 |
| 20260510090705 | 42 | 270 | 5.0 | 5.0 | 0.00 | 0.00 | 0.00 | 95 | 1015.9 |
| 20260510090205 | 42 | 268 | 5.0 | 5.0 | 0.00 | 0.00 | 0.00 | 95 | 1015.8 |
| 20260510085705 | 42 | 220 | 5.0 | 5.0 | 0.00 | 0.00 | 0.00 | 95 | 1015.8 |
| 20260510085205 | 42 | 220 | 5.0 | 5.0 | 0.00 | 0.00 | 0.00 | 94 | 1015.7 |
| 20260510084205 | 42 | 220 | 5.0 | 5.0 | 0.00 | 0.00 | 0.00 | 94 | 1015.6 |
| 20260510083705 | 42 | 220 | 5.0 | 5.0 | 0.00 | 0.00 | 0.00 | 94 | 1015.5 |
| 20260510083204 | 42 | 220 | 5.0 | 5.0 | 0.00 | 0.00 | 0.00 | 95 | 1015.4 |
| 20260510082704 | 42 | 220 | 5.0 | 5.0 | 0.00 | 0.00 | 0.00 | 94 | 1015.3 |
| 20260510082205 | 42 | 220 | 5.0 | 5.0 | 0.00 | 0.00 | 0.00 | 94 | 1015.2 |
| 20260510081705 | 42 | 220 | 5.0 | 5.0 | 0.00 | 0.00 | 0.00 | 94 | 1015.2 |
| 20260510080704 | 42 | 220 | 5.0 | 5.0 | 0.00 | 0.00 | 0.00 | 94 | 1015.1 |
| 20260510080205 | 42 | 223 | 5.0 | 6.0 | 0.00 | 0.00 | 0.00 | 94 | 1015.0 |
| 20260510075204 | 42 | 290 | 6.0 | 6.0 | 0.00 | 0.00 | 0.00 | 93 | 1014.9 |
| 20260510074705 | 42 | 290 | 6.0 | 6.0 | 0.00 | 0.00 | 0.00 | 94 | 1014.8 |
| 20260510074205 | 43 | 290 | 6.0 | 6.0 | 0.00 | 0.00 | 0.00 | 94 | 1014.7 |
| 20260510073705 | 43 | 290 | 6.0 | 6.0 | 0.00 | 0.00 | 0.00 | 94 | 1014.7 |
| 20260510073205 | 43 | 290 | 6.0 | 6.0 | 0.00 | 0.00 | 0.00 | 94 | 1014.7 |
| 20260510072704 | 43 | 290 | 6.0 | 6.0 | 0.00 | 0.00 | 0.00 | 94 | 1014.7 |
| 20260510072206 | 43 | 290 | 6.0 | 6.0 | 0.00 | 0.00 | 0.00 | 93 | 1014.9 |
| 20260510071204 | 43 | 290 | 6.0 | 6.0 | 0.00 | 0.00 | 0.00 | 93 | 1015.0 |
| 20260510070705 | 43 | 290 | 6.0 | 6.0 | 0.00 | 0.00 | 0.00 | 93 | 1015.0 |
| 20260510070205 | 43 | 290 | 6.0 | 6.0 | 0.00 | 0.00 | 0.00 | 93 | 1014.9 |
| 20260510065705 | 43 | 290 | 6.0 | 6.0 | 0.00 | 0.00 | 0.00 | 94 | 1015.0 |
| 20260510065205 | 43 | 290 | 6.0 | 6.0 | 0.00 | 0.00 | 0.00 | 93 | 1015.0 |
| 20260510063705 | 44 | 290 | 6.0 | 6.0 | 0.00 | 0.00 | 0.00 | 93 | 1014.9 |
| 20260510063205 | 44 | 290 | 6.0 | 6.0 | 0.00 | 0.00 | 0.00 | 93 | 1015.1 |
| 20260510062705 | 44 | 290 | 6.0 | 6.0 | 0.00 | 0.00 | 0.00 | 93 | 1015.2 |
| 20260510061705 | 44 | 290 | 6.0 | 6.0 | 0.00 | 0.00 | 0.00 | 93 | 1015.1 |
| 20260510055205 | 44 | 290 | 6.0 | 6.0 | 0.00 | 0.00 | 0.00 | 93 | 1015.3 |
| 20260510054704 | 44 | 290 | 6.0 | 6.0 | 0.00 | 0.00 | 0.00 | 93 | 1015.2 |
| 20260510054204 | 44 | 290 | 6.0 | 6.0 | 0.00 | 0.00 | 0.00 | 93 | 1015.2 |
| 20260510052705 | 45 | 290 | 6.0 | 6.0 | 0.00 | 0.00 | 0.00 | 92 | 1015.3 |
| 20260510052204 | 45 | 290 | 6.0 | 6.0 | 0.00 | 0.00 | 0.00 | 92 | 1015.3 |
| 20260510051704 | 45 | 290 | 6.0 | 6.0 | 0.00 | 0.00 | 0.00 | 92 | 1015.2 |
| 20260510051205 | 45 | 290 | 6.0 | 6.0 | 0.00 | 0.00 | 0.00 | 92 | 1015.1 |
| 20260510050205 | 45 | 290 | 6.0 | 6.0 | 0.00 | 0.00 | 0.00 | 92 | 1015.1 |
| 20260510045704 | 45 | 290 | 6.0 | 6.0 | 0.00 | 0.00 | 0.00 | 92 | 1015.2 |
| 20260510045205 | 45 | 290 | 6.0 | 6.0 | 0.00 | 0.00 | 0.00 | 92 | 1015.2 |
| 20260510044205 | 46 | 290 | 6.0 | 6.0 | 0.00 | 0.00 | 0.00 | 92 | 1014.9 |
| 20260510043205 | 46 | 290 | 6.0 | 6.0 | 0.00 | 0.00 | 0.00 | 91 | 1014.9 |
| 20260510042705 | 46 | 290 | 6.0 | 6.0 | 0.00 | 0.00 | 0.00 | 91 | 1015.0 |
| 20260510042205 | 46 | 290 | 6.0 | 6.0 | 0.00 | 0.00 | 0.00 | 91 | 1015.0 |
| 20260510041704 | 46 | 290 | 6.0 | 6.0 | 0.00 | 0.00 | 0.00 | 91 | 1015.0 |
| 20260510041205 | 46 | 290 | 6.0 | 6.0 | 0.00 | 0.00 | 0.00 | 91 | 1015.0 |
| 20260510040707 | 46 | 290 | 6.0 | 6.0 | 0.00 | 0.00 | 0.00 | 91 | 1015.0 |
| 20260510040204 | 47 | 290 | 6.0 | 6.0 | 0.00 | 0.00 | 0.00 | 91 | 1015.0 |
| 20260510034705 | 47 | 290 | 6.0 | 6.0 | 0.00 | 0.00 | 0.00 | 90 | 1015.0 |
| 20260510033705 | 47 | 290 | 6.0 | 6.0 | 0.00 | 0.00 | 0.00 | 89 | 1015.1 |
| 20260510033204 | 47 | 290 | 6.0 | 6.0 | 0.00 | 0.00 | 0.00 | 90 | 1015.1 |
| 20260510032707 | 47 | 290 | 6.0 | 6.0 | 0.00 | 0.00 | 0.00 | 89 | 1015.0 |
| 20260510032205 | 48 | 290 | 6.0 | 6.0 | 0.00 | 0.00 | 0.00 | 89 | 1015.1 |
| 20260510031705 | 48 | 290 | 6.0 | 6.0 | 0.00 | 0.00 | 0.00 | 89 | 1015.1 |
| 20260510031205 | 48 | 290 | 6.0 | 6.0 | 0.00 | 0.00 | 0.00 | 89 | 1015.0 |
| 20260510030705 | 48 | 290 | 6.0 | 6.0 | 0.00 | 0.00 | 0.00 | 88 | 1015.0 |
| 20260510030205 | 48 | 290 | 6.0 | 6.0 | 0.00 | 0.00 | 0.00 | 88 | 1015.0 |
| 20260510025705 | 48 | 290 | 6.0 | 6.0 | 0.00 | 0.00 | 0.00 | 88 | 1015.0 |
| 20260510025205 | 49 | 290 | 6.0 | 6.0 | 0.00 | 0.00 | 0.00 | 88 | 1014.9 |
| 20260510024705 | 49 | 290 | 6.0 | 6.0 | 0.00 | 0.00 | 0.00 | 87 | 1014.8 |
| 20260510024205 | 49 | 290 | 6.0 | 6.0 | 0.00 | 0.00 | 0.00 | 87 | 1014.8 |
| 20260510023705 | 49 | 290 | 6.0 | 6.0 | 0.00 | 0.00 | 0.00 | 87 | 1014.7 |
| 20260510023205 | 49 | 290 | 6.0 | 6.0 | 0.00 | 0.00 | 0.00 | 86 | 1014.7 |
| 20260510022705 | 50 | 290 | 6.0 | 6.0 | 0.00 | 0.00 | 0.00 | 86 | 1014.7 |
| 20260510022205 | 50 | 290 | 6.0 | 6.0 | 0.00 | 0.00 | 0.00 | 86 | 1014.7 |
| 20260510021205 | 50 | 290 | 6.0 | 6.0 | 0.00 | 0.00 | 0.00 | 85 | 1014.5 |
| 20260510020705 | 50 | 290 | 6.0 | 6.0 | 0.00 | 0.00 | 0.00 | 85 | 1014.5 |
| 20260510020205 | 51 | 290 | 6.0 | 6.0 | 0.00 | 0.00 | 0.00 | 84 | 1014.5 |
| 20260510015705 | 51 | 290 | 6.0 | 6.0 | 0.00 | 0.00 | 0.00 | 84 | 1014.3 |
| 20260510015205 | 51 | 290 | 6.0 | 6.0 | 0.00 | 0.00 | 0.00 | 84 | 1014.3 |
| 20260510014705 | 51 | 290 | 6.0 | 6.0 | 0.00 | 0.00 | 0.00 | 83 | 1014.2 |
| 20260510013705 | 52 | 290 | 6.0 | 6.0 | 0.00 | 0.00 | 0.00 | 82 | 1014.0 |
| 20260510012705 | 52 | 290 | 6.0 | 6.0 | 0.00 | 0.00 | 0.00 | 81 | 1013.8 |
| 20260510012204 | 53 | 290 | 6.0 | 6.0 | 0.00 | 0.00 | 0.00 | 81 | 1013.8 |
| 20260510011705 | 53 | 290 | 6.0 | 6.0 | 0.00 | 0.00 | 0.00 | 80 | 1013.6 |
| 20260510011205 | 53 | 290 | 6.0 | 6.0 | 0.00 | 0.00 | 0.00 | 80 | 1013.4 |
| 20260510010704 | 54 | 290 | 6.0 | 6.0 | 0.00 | 0.00 | 0.00 | 79 | 1013.3 |
| 20260510005205 | 55 | 290 | 6.0 | 6.0 | 0.00 | 0.00 | 0.00 | 77 | 1013.1 |
| 20260510004704 | 55 | 290 | 6.0 | 6.0 | 0.00 | 0.00 | 0.00 | 76 | 1013.0 |
| 20260510004205 | 56 | 290 | 6.0 | 6.0 | 0.00 | 0.00 | 0.00 | 75 | 1012.9 |
| 20260510003205 | 57 | 290 | 6.0 | 6.0 | 0.00 | 0.00 | 0.00 | 74 | 1012.5 |
| 20260510002705 | 57 | 290 | 6.0 | 6.0 | 0.00 | 0.00 | 0.00 | 73 | 1012.7 |
| 20260510002204 | 57 | 290 | 6.0 | 6.0 | 0.00 | 0.00 | 0.00 | 72 | 1012.6 |
| 20260510001705 | 58 | 290 | 6.0 | 6.0 | 0.00 | 0.00 | 0.00 | 71 | 1012.6 |
| 20260510001205 | 58 | 290 | 6.0 | 6.0 | 0.00 | 0.00 | 0.00 | 70 | 1012.6 |
| 20260510000204 | 59 | 290 | 6.0 | 7.0 | 0.00 | 0.00 | 0.00 | 69 | 1012.5 |
| 20260509235705 | 59 | 290 | 7.0 | 7.0 | 0.00 | 0.00 | 0.00 | 69 | 1012.5 |
| 20260509235205 | 60 | 290 | 7.0 | 7.0 | 0.00 | 0.00 | 0.00 | 69 | 1012.6 |
| 20260509234704 | 60 | 290 | 7.0 | 7.0 | 0.00 | 0.00 | 0.00 | 67 | 1012.5 |
| 20260509234205 | 60 | 290 | 7.0 | 7.0 | 0.00 | 0.00 | 0.00 | 67 | 1012.5 |
| 20260509233705 | 60 | 290 | 7.0 | 7.0 | 0.00 | 0.00 | 0.00 | 65 | 1012.5 |
| 20260509233205 | 61 | 290 | 7.0 | 7.0 | 0.00 | 0.00 | 0.00 | 65 | 1012.6 |
| 20260509232705 | 61 | 290 | 7.0 | 7.0 | 0.00 | 0.00 | 0.00 | 64 | 1012.7 |
| 20260509232205 | 61 | 290 | 7.0 | 7.0 | 0.00 | 0.00 | 0.00 | 64 | 1012.8 |
| 20260509231205 | 62 | 290 | 7.0 | 7.0 | 0.00 | 0.00 | 0.00 | 64 | 1012.6 |
| 20260509230705 | 62 | 290 | 7.0 | 7.0 | 0.00 | 0.00 | 0.00 | 62 | 1012.6 |
| 20260509230205 | 62 | 288 | 7.0 | 8.0 | 0.00 | 0.00 | 0.00 | 59 | 1012.5 |
| 20260509224705 | 63 | 260 | 8.0 | 8.0 | 0.00 | 0.00 | 0.00 | 57 | 1012.2 |
| 20260509224205 | 63 | 260 | 8.0 | 8.0 | 0.00 | 0.00 | 0.00 | 60 | 1012.2 |
| 20260509223705 | 63 | 260 | 8.0 | 8.0 | 0.00 | 0.00 | 0.00 | 59 | 1012.3 |
| 20260509223205 | 63 | 260 | 8.0 | 8.0 | 0.00 | 0.00 | 0.00 | 58 | 1012.3 |
| 20260509222704 | 63 | 260 | 8.0 | 8.0 | 0.00 | 0.00 | 0.00 | 56 | 1012.2 |
| 20260509221705 | 63 | 260 | 8.0 | 8.0 | 0.00 | 0.00 | 0.00 | 56 | 1012.3 |
| 20260509221205 | 64 | 260 | 8.0 | 8.0 | 0.00 | 0.00 | 0.00 | 57 | 1012.1 |
| 20260509220705 | 64 | 260 | 8.0 | 8.0 | 0.00 | 0.00 | 0.00 | 56 | 1012.1 |
| 20260509220205 | 64 | 260 | 10.0 | 20.0 | 0.00 | 0.00 | 0.00 | 54 | 1012.1 |
| 20260509215704 | 64 | 260 | 13.0 | 20.0 | 0.00 | 0.00 | 0.00 | 53 | 1012.0 |
| 20260509215205 | 65 | 260 | 13.0 | 20.0 | 0.00 | 0.00 | 0.00 | 56 | 1012.2 |
| 20260509214705 | 65 | 260 | 13.0 | 20.0 | 0.00 | 0.00 | 0.00 | 55 | 1012.3 |
| 20260509214205 | 66 | 260 | 13.0 | 20.0 | 0.00 | 0.00 | 0.00 | 54 | 1012.2 |
| 20260509213705 | 67 | 260 | 13.0 | 20.0 | 0.00 | 0.00 | 0.00 | 53 | 1012.1 |
| 20260509213205 | 66 | 260 | 13.0 | 20.0 | 0.00 | 0.00 | 0.00 | 54 | 1012.0 |
| 20260509212705 | 66 | 260 | 13.0 | 20.0 | 0.00 | 0.00 | 0.00 | 57 | 1012.0 |
| 20260509211705 | 66 | 260 | 13.0 | 20.0 | 0.00 | 0.00 | 0.00 | 56 | 1011.9 |
| 20260509211205 | 65 | 260 | 13.0 | 20.0 | 0.00 | 0.00 | 0.00 | 54 | 1011.9 |
| 20260509210705 | 65 | 260 | 13.0 | 20.0 | 0.00 | 0.00 | 0.00 | 55 | 1011.9 |
| 20260509210205 | 65 | 259 | 13.0 | 23.0 | 0.00 | 0.00 | 0.00 | 55 | 1011.9 |
| 20260509205705 | 65 | 240 | 14.0 | 23.0 | 0.00 | 0.00 | 0.00 | 55 | 1011.8 |
| 20260509205205 | 65 | 240 | 14.0 | 23.0 | 0.00 | 0.00 | 0.00 | 55 | 1011.8 |
| 20260509204704 | 66 | 240 | 14.0 | 23.0 | 0.00 | 0.00 | 0.00 | 54 | 1011.8 |